Simultaneous Nadir Overpasses (SNOs) Predictions

Prediction of SNOs between FY3D and AQUA Satellite Orbit:

Table of predicted SNOs for the next 14.0 days since TLE Epoch: 6/18/2021
Index Date (FY3D) Time (FY3D) Lat,Lon (FY3D) SZA (FY3D ) Date (AQUA) Time (AQUA) Lat,Lon (AQUA) SZA (AQUA ) Distance(km) Time Diff (sec)
1 06/20/2021 19:37:03 51.97,-101.13 30.00 06/20/2021 19:37:39 51.97,-101.13 30.03 0.26 36
2 06/20/2021 20:26:40 -48.27, 67.88 152.91 06/20/2021 20:26:01 -48.30, 68.08 152.87 15.38 39
3 06/23/2021 11:53:48 53.46, 14.06 31.22 06/23/2021 11:54:33 53.47, 14.05 31.26 1.11 45
4 06/23/2021 12:42:49 -47.70,-175.94 153.36 06/23/2021 12:42:20 -47.73,-175.81 153.34 10.12 29
5 06/26/2021 04:10:31 54.85, 129.27 32.43 06/26/2021 04:11:25 54.85, 129.24 32.47 2.05 54
6 06/26/2021 04:58:58 -47.13, -59.76 153.76 06/26/2021 04:58:39 -47.17, -59.71 153.74 5.52 19
7 06/28/2021 20:27:36 57.48,-116.32 34.81 06/28/2021 20:28:38 57.47,-116.31 34.85 1.14 62
8 06/28/2021 21:15:14 -46.97, 56.24 153.82 06/28/2021 21:15:04 -46.97, 56.25 153.83 0.25 10
9 07/01/2021 12:44:12 58.51, -1.04 35.88 07/01/2021 12:45:23 58.51, -1.04 35.92 0.11 71



Historial Predications of SNOs between FY3D and AQUA
